Home > Weather > Garland > Past weeks

Flag for USA Past Weather in Garland, Texas, USA — Yesterday and Last 2 Weeks

Now
76 °F

Clear.


Feels Like: 76 °F
Forecast: 79 / 94 °F
Wind: 5 mph from Southeast

Location: Mesquite Metro Airport

Current Time: Jul 27, 2016 at 2:48:02 AM

Latest Report: Jul 27, 2016 at 2:15 AM


Visibility: 10 mi

Pressure: 29.92 "Hg

Humidity: 99%

Dew Point: 76 °F

Location of GarlandLocation

Past Weather in Garland — Graph

°F

Garland Temperature Yesterday

Maximum temperature yesterday: 93 °F (at 3:50 PM)
Minimum temperature yesterday: 73 °F (at 6:15 AM)
Average temperature yesterday: 80 °F

High & Low Weather Summary for the Past Weeks

 TemperatureHumidityPressure
High99 °F (Jul 22, 3:50 PM)100% (Jul 18, 6:50 AM)30.22 "Hg (Jul 18, 6:50 AM)
Low70 °F (Jul 19, 10:50 AM)33% (Jul 22, 3:50 PM)29.87 "Hg (Jul 23, 6:50 PM)
Average82 °F72%30.00 "Hg
* Reported Jul 12 1:15 AM — Jul 27 1:35 AM, Garland, Weather by CustomWeather, © 2016

Note: Actual official high and low records may vary slightly from our data, if they occured in-between our weather recording intervals... More about our weather records

Advertising

Garland Weather History for the Previous 24 Hours

Scroll right to see more
 ConditionsComfort  
Time TempWeatherWind HumidityBarometerVisibility
1:35 AM
Wed, Jul 27
77 °FClear.5 mph97%29.92 "Hg10 mi
1:15 AM77 °FClear.3 mph97%29.93 "Hg10 mi
12:55 AM77 °FClear.3 mph95%29.94 "Hg10 mi
12:35 AM77 °FClear.No wind95%29.93 "Hg10 mi
12:15 AM78 °FClear.No wind94%29.93 "Hg10 mi
11:55 PM
Tue, Jul 26
77 °FClear.5 mph94%29.92 "Hg10 mi
11:15 PM79 °FClear.3 mph89%29.92 "Hg10 mi
10:55 PM80 °FClear.3 mph88%29.92 "Hg10 mi
10:35 PM80 °FClear.5 mph85%29.92 "Hg10 mi
10:15 PM80 °FClear.3 mph85%29.92 "Hg10 mi
9:55 PM81 °FPassing clouds.No wind79%29.92 "Hg10 mi
9:35 PM82 °FClear.No wind78%29.92 "Hg10 mi
9:15 PM82 °FSunny.3 mph76%29.91 "Hg10 mi
8:55 PM82 °FScattered clouds.No wind73%29.91 "Hg10 mi
8:35 PM83 °FScattered clouds.No wind68%29.91 "Hg10 mi
8:15 PM84 °FBroken clouds.5 mph64%29.90 "Hg10 mi
7:50 PM88 °FPartly sunny.5 mph59%29.89 "Hg10 mi
6:50 PM90 °FPartly sunny.No wind55%29.87 "Hg10 mi
5:50 PM93 °FPartly sunny.6 mph47%29.88 "Hg10 mi
4:50 PM93 °FScattered clouds.No wind47%29.87 "Hg10 mi
3:50 PM93 °FScattered clouds.3 mph47%29.88 "Hg10 mi
2:59 PM91 °FBroken clouds.No wind49%29.91 "Hg10 mi
1:50 PM91 °FSunny.No wind52%29.94 "Hg10 mi
12:50 PM90 °FSunny.6 mph59%29.96 "Hg10 mi
11:50 AM88 °FSunny.3 mph62%29.97 "Hg10 mi
10:50 AM84 °FSunny.3 mph70%29.99 "Hg10 mi
9:50 AM82 °FSunny.No wind79%29.98 "Hg10 mi
8:50 AM79 °FSunny.No wind89%29.98 "Hg7 mi
7:50 AM75 °FFog.No wind100%29.97 "Hg3 mi
6:50 AM73 °FFog.No wind100%29.97 "Hg5 mi
6:15 AM73 °FPassing clouds.No wind100%29.96 "Hg2 mi
5:55 AM74 °FPassing clouds.No wind100%29.96 "Hg3 mi
5:35 AM74 °FClear.No wind100%29.96 "Hg4 mi
5:15 AM73 °FClear.No wind100%29.95 "Hg3 mi
4:55 AM74 °FClear.No wind100%29.96 "Hg3 mi
4:35 AM73 °FClear.No wind100%29.95 "Hg3 mi
4:15 AM74 °FClear.No wind100%29.95 "Hg4 mi
3:55 AM74 °FClear.No wind100%29.95 "Hg5 mi
3:35 AM74 °FClear.No wind100%29.94 "Hg7 mi
3:15 AM74 °FClear.No wind100%29.95 "Hg4 mi
2:55 AM74 °FClear.No wind100%29.95 "Hg3 mi
2:35 AM74 °FClear.3 mph100%29.95 "Hg5 mi
2:15 AM75 °FClear.No wind100%29.96 "Hg3 mi
Weather by CustomWeather, © 2016

See weather overviewHow to use our weather pages